Location: Spring Creek
(38.2870°N, 100.2160°W)
Time: 04:29:18
(UTC+00:00)

Daily predictions for brighter satellites

Satellite Brightness Start Highest point End
(mag) Time Altitude Azimuth Time Altitude Azimuth Time Altitude Azimuth
Okean-O 3.6 02:00:42 10° S 02:05:00 51° W 02:09:20 10° NNW
Cosmos 1763 Rocket 4.2 02:00:29 10° NNW 02:05:28 56° WSW 02:10:27 10° S
DELTA 2 R/B (1) 3.7 02:00:41 10° W 02:06:16 79° N 02:11:51 10° E
Cosmos 1606 3.9 02:05:00 10° SE 02:07:57 22° E 02:10:55 10° NE
ASTRO E2 3.8 02:04:40 10° WSW 02:08:10 30° S 02:11:40 10° ESE
NOSS 3-1 (A) 4.3 02:00:19 10° NNW 02:08:11 89° WSW 02:17:09 10° SSE
GENESIS II 4.2 02:04:46 10° NNW 02:08:39 75° ENE 02:12:30 10° SE
SL-4 R/B 3.9 02:05:45 10° NNW 02:09:21 25° NNE 02:13:09 10° E
Aureole 1 Rocket 4.2 02:06:22 10° SW 02:11:08 48° WNW 02:14:51 10° N
Cosmos 841 Rocket 3.5 02:07:06 10° NNW 02:12:17 76° ENE 02:17:24 10° SSE
IRIS 4.2 02:10:32 10° W 02:12:49 54° N 02:15:24 10° ENE
ARGOS 4.3 02:07:54 10° S 02:13:00 45° W 02:18:08 10° NNW
CZ-4 R/B 3.9 02:14:13 10° SSW 02:17:30 23° W 02:20:46 10° NW
Meteor 2-15 4.4 02:12:30 10° S 02:18:33 79° E 02:24:37 10° N
Meteor 2-2 Rocket 4.2 02:14:45 10° S 02:20:25 77° E 02:26:03 10° NNE
Cosmos 1500 Rocket 4.3 02:18:26 10° NNE 02:22:27 34° ENE 02:26:25 10° SE
Cosmos 2221 2.4 02:18:52 10° S 02:23:08 80° E 02:27:28 10° N
Cosmos 1174 3.6 02:22:49 10° NW 02:26:26 67° WSW 02:29:31 10° SSE
Cosmos 2263 Rocket 4.2 02:28:01 10° WSW 02:32:59 33° WNW 02:37:59 10° N
Cosmos 1943 3.5 02:31:02 10° NNW 02:36:39 71° WSW 02:42:16 10° SSE
ERS-2 3.5 02:33:17 10° N 02:36:45 42° WNW 02:40:10 10° SW
Cosmos 1844 Rocket 2.7 02:32:39 10° S 02:38:03 55° ESE 02:43:29 10° NNE
Resurs 01 Rocket 2.7 02:36:34 15° ESE 02:39:24 28° ENE 02:43:12 10° N
MOS 1-B Rocket 4.3 02:32:36 10° NNE 02:40:10 83° ESE 02:46:32 10° SSW
IRS-1A Rocket 4.4 02:34:46 10° SSE 02:40:25 65° ENE 02:46:11 10° N
FALCON 9 DEB 4.5 02:38:07 10° NNW 02:40:43 24° NNE 02:42:34 15° E
S3M 4.4 02:36:17 10° SSE 02:42:16 44° E 02:48:15 10° NNE
Cosmos 1570 Rocket 4.1 02:38:13 10° NNW 02:43:29 81° WSW 02:48:41 10° SSE
Ariane Rocket 3.0 02:40:23 11° SSE 02:45:16 67° ENE 02:50:17 10° N
Cosmos 1862 3.5 02:41:32 10° NNW 02:45:32 73° W 02:49:31 10° S
Cosmos 1933 4.4 02:43:53 18° SE 02:45:46 26° E 02:49:09 10° NNE
X-37B 2.8 02:46:36 10° WNW 02:49:16 24° N 02:51:57 10° NE
Sich 1 4.0 02:50:41 10° NNE 02:54:31 30° ENE 02:56:14 23° ESE
Cosmos 1844 3.7 02:50:15 10° S 02:55:55 64° ESE 03:01:33 10° NNE
Cosmos 1814 Rocket 4.5 02:53:12 10° NNW 02:58:20 59° WSW 03:03:23 10° S
Cosmos 1437 Rocket 2.6 02:56:12 10° S 03:00:01 80° E 03:03:56 10° NNE
Cosmos 1553 Rocket 4.0 02:55:11 10° S 03:01:16 87° W 03:07:30 10° N
SPOT 3 Rocket 3.8 03:02:32 23° SE 03:05:33 52° ENE 03:10:33 10° N
BREEZE-M DEB (TANK) 2.0 03:04:00 10° WNW 03:06:14 69° SW 03:07:19 35° SE
ATLAS 5 CENTAUR R/B 3.6 03:01:58 10° N 03:06:47 27° NE 03:10:23 17° E
Cosmos 1242 Rocket 2.9 03:11:06 38° SE 03:11:43 43° E 03:15:08 10° NNE
Cosmos 1782 3.8 03:12:18 28° E 03:12:22 28° E 03:15:49 10° NNE
Cosmos 1151 Rocket 3.8 03:13:21 30° ESE 03:13:56 32° E 03:17:49 10° NNE
CZ-4C R/B 4.5 03:08:30 10° N 03:13:58 22° NE 03:19:32 11° E
CZ-2C R/B 3.8 03:10:14 10° NNE 03:14:37 51° E 03:16:47 27° SSE
Cosmos 968 Rocket 4.1 03:10:43 10° SSW 03:15:54 59° WNW 03:21:05 10° N
Cosmos 1486 Rocket 4.3 03:14:51 10° SSW 03:20:08 69° WNW 03:25:28 10° NNE
OBJECT-B 3.4 03:20:07 10° SW 03:22:23 18° W 03:24:41 10° NW
Landsat 7 3.8 03:23:52 35° SSE 03:25:51 70° ENE 03:30:35 10° N
FALCON 9 DEB 2.7 03:24:38 10° NW 03:27:35 85° WNW 03:27:35 85° WNW
ARIANE 5 R/B 3.5 03:27:44 29° E 03:28:13 30° ENE 03:32:01 10° N
BREEZE-M DEB (TANK) 3.3 03:25:56 10° NW 03:33:36 57° NNE 03:34:30 42° ENE
Cosmos 1805 Rocket 3.8 03:29:46 10° NNW 03:34:05 67° W 03:36:01 31° SSW
FALCON 9 DEB 3.1 03:31:09 10° NW 03:33:51 60° W 03:33:51 60° W
CRYOSAT 2 4.4 03:35:37 44° SE 03:36:54 59° E 03:41:43 10° N
Cosmos 1602 3.9 03:35:42 10° N 03:39:21 52° ENE 03:39:21 52° ENE
FALCON 9 DEB 3.5 03:38:50 10° NW 03:41:19 54° WNW 03:41:19 54° WNW
Cosmos 1633 Rocket 3.2 03:38:51 10° N 03:43:08 51° E 03:43:21 51° E
Meteor 1-20 Rocket 4.1 03:37:49 10° N 03:43:28 87° W 03:45:46 37° S
Cosmos 2082 Rocket 4.4 03:44:17 10° NNE 03:46:13 12° NE 03:48:04 10° ENE
SL-4 R/B 2.2 03:44:52 10° NW 03:49:23 81° SW 03:50:00 66° SSE
Cosmos 1328 Rocket 3.4 03:49:46 66° ESE 03:49:59 67° E 03:54:24 10° NNE
Cosmos 1470 Rocket 4.5 03:47:27 10° N 03:51:12 35° ENE 03:51:12 35° ENE
DELTA 2 R/B (1) 3.4 03:47:17 10° WNW 03:52:52 87° SSW 03:54:20 51° ESE
Spot 2 Rocket 3.5 03:52:22 55° ESE 03:53:15 65° ENE 03:58:15 10° N
NOSS 3-3 (A) 3.7 03:48:25 10° SSW 03:53:59 82° ESE 04:00:17 10° NE
NOSS 3-3 (C) 3.7 03:48:31 10° SSW 03:54:06 81° ESE 04:00:24 10° NE
CARTOSAT-1 3.7 03:55:59 56° ENE 03:55:59 56° ENE 04:00:07 10° N
USA 290 3.5 03:59:59 10° NNW 04:02:15 40° NW 04:02:15 40° NW
Cosmos 1812 4.1 04:06:16 31° NNE 04:06:16 31° NNE 04:08:30 10° NNE
Cosmos 2278 Rocket 2.5 04:08:10 49° E 04:08:10 49° E 04:13:05 10° NNE
Cosmos 1666 Rocket 3.7 04:03:43 10° NNW 04:08:05 64° W 04:08:24 61° WSW
ERS-1 Rocket 3.0 04:11:00 62° E 04:11:07 63° ENE 04:16:05 10° N
Cosmos 2184 Rocket 4.5 04:07:17 10° N 04:13:07 41° ENE 04:13:28 40° E
Cosmos 1709 Rocket 4.1 04:09:39 10° NNW 04:15:43 67° W 04:17:42 43° SSW
Resurs 01 Rocket 3.5 04:14:08 19° SW 04:15:50 24° W 04:19:26 10° NW
Cosmos 1777 Rocket 3.8 04:17:06 80° S 04:17:22 86° ESE 04:22:37 10° NNE
SPOT 5 2.9 04:20:40 76° ENE 04:20:40 76° ENE 04:25:48 10° N
Cosmos 2074 Rocket 4.2 04:15:53 10° N 04:22:00 51° E 04:22:22 50° E
X-37B 3.2 04:23:35 10° NW 04:25:07 22° NNW 04:25:07 22° NNW
SJ 16-02 2.9 04:29:01 27° NE 04:29:01 27° NE 04:31:10 10° NNE
Terra 2.1 04:33:36 59° NNE 04:33:36 59° NNE 04:37:37 10° N
Milstar 3 3.8 04:23:22 10° WSW 04:34:24 41° S 04:34:24 41° S
Meteor 1-5 Rocket 4.1 04:36:22 10° N 04:41:27 79° NNW 04:41:27 79° NNW
ATLAS 5 CENTAUR R/B 2.6 04:45:54 10° NW 04:51:45 59° WSW 04:51:54 59° SW
Cosmos 1833 Rocket 2.8 04:53:43 10° NNW 04:58:45 70° N 04:58:45 70° N
CZ-4C R/B 3.0 04:56:00 10° NNW 05:03:34 81° ENE 05:04:43 68° ESE
Meteor 1-27 Rocket 4.0 05:14:45 67° N 05:14:45 67° N 05:19:48 10° N
COSMOS 2406 3.9 05:20:45 10° NNW 05:25:09 48° WNW 05:25:09 48° WNW
Cosmos 2082 Rocket 2.8 05:25:36 10° NNW 05:29:54 53° N 05:29:54 53° N
NOSS 3-4 (A) 3.9 05:33:00 10° NNW 05:40:11 76° NE 05:40:16 76° ENE
NOSS 3-4 (C) 3.9 05:33:06 10° NNW 05:40:17 75° NE 05:40:22 75° ENE
USA 215 4.4 05:49:20 27° ENE 05:51:53 36° NNE 05:57:45 10° NNW
Cosmos 2278 Rocket 4.2 05:49:56 19° W 05:51:58 23° NW 05:56:23 10° N
ATLAS 2AS CENTAUR R/B 3.1 05:46:38 10° NNW 05:53:47 55° NE 05:53:51 55° NE
Cosmos 2369 Rocket 3.9 06:05:51 25° NE 06:05:51 25° NE 06:08:20 10° NE
SJ 16-02 4.1 06:05:57 13° WNW 06:05:57 13° WNW 06:07:59 10° NNW
Cosmos 1943 Rocket 3.2 06:17:04 42° NNE 06:17:04 42° NNE 06:20:44 10° NNE
CZ-2D R/B 4.4 06:58:39 10° NE 07:00:42 15° ENE 07:00:42 15° ENE
SeaSat 1 3.9 06:57:36 10° NNE 07:00:36 34° N 07:00:36 34° N
ATLAS CENTAUR R/B 4.2 07:30:57 13° NNE 07:30:57 13° NNE 07:31:27 10° NNE
Resurs 1-4 Rocket 3.8 07:24:02 10° NE 07:27:22 26° ENE 07:27:22 26° ENE
USA 215 3.8 07:36:38 46° WNW 07:36:38 46° WNW 07:41:06 10° NW
Cosmos 1607 4.5 07:42:36 53° NW 07:42:36 53° NW 07:48:42 10° NNE
ATLAS 2AS CENTAUR R/B 4.3 07:38:24 10° NW 07:41:15 21° WNW 07:41:15 21° WNW
Cosmos 2369 Rocket 3.7 07:47:36 26° NW 07:47:36 26° NW 07:51:54 10° N
Cosmos 1605 Rocket 4.1 07:44:28 10° N 07:50:23 70° ENE 07:50:23 70° ENE
Lacrosse 5 2.6 08:18:22 49° ENE 08:18:22 49° ENE 08:22:13 10° NE
USA 281 3.1 08:21:23 71° W 08:21:23 71° W 08:27:45 10° NNW
BREEZE-M DEB (TANK) 3.5 08:22:01 50° ESE 08:22:01 50° ESE 08:30:24 10° ENE
Cosmos 44 Rocket 3.9 08:17:51 10° NNW 08:22:58 56° NE 08:23:18 55° ENE
SL-16 R/B 2.5 08:23:43 67° SE 08:24:34 79° ENE 08:30:51 10° NNW
NPP 3.7 08:21:05 10° NNE 08:26:12 76° ENE 08:26:12 76° ENE
ISS -0.6 08:34:05 10° NNW 08:34:27 11° NNW 08:35:14 10° N
ARGOS Delta rocket 4.3 08:30:14 10° NNE 08:34:22 53° E 08:34:22 53° E
UNK 4.3 08:36:42 54° NNW 08:36:42 54° NNW 08:40:15 10° NNW
Cosmos 1975 Rocket 3.9 08:39:33 45° ENE 08:39:33 45° ENE 08:43:22 10° NNE
Cosmos 2297 Rocket 4.0 08:36:17 10° N 08:41:13 29° ENE 08:46:06 10° ESE
CZ-2D R/B 2.3 08:36:54 10° N 08:42:01 60° WNW 08:42:01 60° WNW
SL-19 R/B 4.0 08:39:03 10° NNE 08:44:45 82° WNW 08:44:57 80° WSW
Cosmos 371 Rocket 4.1 08:45:59 42° ESE 08:46:16 43° ESE 08:50:52 10° NNE
Cosmos 1727 Rocket 4.1 08:46:02 57° W 08:46:22 57° W 08:52:37 10° N
AQUA 3.9 08:43:32 10° N 08:47:52 71° NNW 08:47:52 71° NNW
Cosmos 1707 4.0 08:50:59 35° N 08:50:59 35° N 08:53:22 10° N
Cosmos 1000 Rocket 4.4 08:50:36 62° S 08:51:48 89° WNW 08:58:07 10° N
Tianhe-1 3.7 08:54:25 19° ENE 08:54:25 19° ENE 08:55:33 10° ENE
Helios 1B rocket 3.9 08:54:24 10° N 08:57:02 29° NW 08:57:02 29° NW
IDEFIX/ARIANE 42P 3.5 08:53:17 10° NNE 08:58:16 42° E 09:00:04 31° SE
Meteor 2-10 4.4 08:54:55 10° NNW 08:59:32 48° WNW 08:59:32 48° WNW
In-Cosmos 22 4.1 08:59:18 63° S 09:00:16 87° E 09:05:54 10° N
USA 276 4.2 09:02:50 28° NE 09:02:50 28° NE 09:04:31 10° NE
BREEZE-M R/B 3.8 09:01:39 27° WNW 09:04:28 76° SW 09:14:22 10° SE
Okean 1 Rocket 4.4 09:01:19 10° NNW 09:03:51 29° NW 09:03:51 29° NW
ADEOS II 1.9 09:01:10 10° N 09:06:26 80° WNW 09:07:08 66° SW
Cosmos 1758 4.1 09:03:42 10° NNW 09:06:42 45° NNW 09:06:42 45° NNW
Resurs 1-4 Rocket 3.0 09:03:39 10° N 09:08:19 33° WNW 09:08:26 33° WNW
COSMOS 2455 3.4 09:02:35 10° NNW 09:08:32 58° ENE 09:14:26 10° SE
Cosmos 1726 4.1 09:08:10 10° NNW 09:09:36 20° NW 09:09:36 20° NW
Cosmos 1908 4.3 09:08:01 10° N 09:11:43 42° E 09:12:47 33° ESE
Lacrosse 4 Rocket 3.6 09:11:35 17° SE 09:13:13 21° ESE 09:16:32 10° ENE
Cosmos 2251 Rocket 3.9 09:09:24 10° NNW 09:14:36 61° ENE 09:19:20 12° SSE
Cosmos 2219 4.1 09:10:37 10° NNW 09:16:09 49° ENE 09:21:41 10° SE
Cosmos 1315 Rocket 2.9 09:13:04 10° N 09:16:37 69° NNW 09:16:37 69° NNW
IRS-1D 3.5 09:13:38 10° N 09:18:58 75° WNW 09:20:12 53° SW
Cosmos 1626 2.7 09:21:55 47° ESE 09:22:21 50° E 09:25:57 10° NNE
Cosmos 1725 Rocket 4.0 09:18:21 10° N 09:24:39 80° E 09:29:13 19° S
Timation 2 Rocket 4.4 09:19:38 10° NNW 09:25:32 58° ENE 09:31:27 10° SE
Cosmos 2061 Rocket 4.0 09:19:47 10° N 09:26:08 90° ESE 09:30:22 23° S
Cosmos 1025 Rocket 3.0 09:25:43 56° S 09:26:34 80° E 09:30:56 10° N
Cosmos 1656 3.6 09:26:49 48° SW 09:28:11 67° WNW 09:33:40 10° NNE
Meteor 1-28 Rocket 3.0 09:30:03 72° WNW 09:30:03 72° WNW 09:33:34 10° NNW
GP-B 3.1 09:30:40 10° N 09:35:07 82° E 09:36:50 37° S
IRS-1C 4.2 09:32:58 10° NNE 09:38:19 78° ESE 09:41:11 28° S
Cosmos 1544 Rocket 3.5 09:34:12 10° N 09:38:35 82° E 09:40:54 28° S
CZ-2C R/B 1.8 09:40:07 33° SE 09:40:07 33° SE 09:42:17 10° ESE
Cosmos 2233 Rocket 4.2 09:34:57 10° N 09:41:10 69° E 09:47:17 10° SSE
Cosmos 1459 Rocket 4.4 09:36:38 10° NNW 09:42:25 41° W 09:44:16 33° SW
ADEOS Rocket 3.4 09:37:17 17° S 09:43:04 69° WSW 09:50:44 10° NNW
Cosmos 2016 Rocket 4.0 09:37:03 10° NNW 09:43:13 62° W 09:46:44 26° SSW
Meteor 1-16 Rocket 4.3 09:39:46 10° NNW 09:45:40 68° W 09:49:39 21° S
Cosmos 1340 4.5 09:43:15 12° SSE 09:46:10 28° E 09:49:25 10° NNE
Cosmos 1455 Rocket 3.4 09:45:23 10° NNW 09:49:28 42° W 09:50:01 40° WSW
Cosmos 1536 Rocket 3.5 09:50:07 29° S 09:52:19 85° E 09:56:45 10° N
SL-08 R/B 3.7 09:47:51 10° SSE 09:52:33 64° ENE 09:57:11 10° N
ARIANE 5 R/B 2.5 09:52:21 10° NNE 09:57:32 88° WNW 10:00:55 22° SSW
OAO 3 Rocket 3.8 09:58:42 32° SW 09:59:47 37° SSW 10:04:17 10° SE
Lacrosse 5 3.5 09:57:34 15° WNW 10:00:31 24° NNW 10:04:38 10° NNE
Cosmos 1697 Rocket 2.7 09:58:11 27° SW 10:01:16 72° WNW 10:06:53 10° NNE
Cosmos 1140 Rocket 4.2 09:56:13 10° N 10:01:20 55° ENE 10:06:26 10° SSE
Centaur D-1AR AC-39 4.0 10:00:53 17° SSW 10:03:45 22° SSE 10:15:08 10° ESE
Cosmos 304 Rocket 3.9 10:03:04 29° SW 10:05:18 56° WNW 10:10:02 10° N
SL-16 R/B 4.2 10:08:48 14° W 10:08:48 14° W 10:12:02 10° WNW
Cosmos 1980 Rocket 2.4 10:06:27 15° S 10:11:08 71° ESE 10:16:47 10° NNE
Cosmos 1953 3.4 10:08:35 10° NW 10:11:51 25° W 10:12:14 24° W
Cosmos 614 Rocket 4.1 10:08:06 10° NNW 10:13:01 50° WSW 10:17:55 10° S
Cosmos 2228 4.5 10:09:51 10° N 10:13:52 39° ENE 10:17:52 10° SSE
Cosmos 1674 4.5 10:14:27 16° W 10:14:44 16° WNW 10:17:12 10° NNW
Cosmos 2369 3.7 10:13:21 20° SSW 10:17:23 71° WNW 10:23:08 10° NNE
BREEZE-M DEB (TANK) 2.3 10:16:08 23° W 10:17:49 45° NW 10:20:01 10° NE
Cosmos 2278 3.9 10:15:57 12° SSW 10:21:11 75° ESE 10:26:54 10° NNE
Cosmos 2227 Rocket 2.3 10:16:07 10° NNW 10:21:36 54° WSW 10:27:03 10° S
ALOS 3.7 10:19:06 10° NNE 10:23:24 36° E 10:27:41 10° SSE
APEX 4.1 10:19:09 10° NNW 10:23:38 75° ENE 10:29:15 10° SSE
Cosmos 2297 Rocket 2.7 10:20:07 10° NW 10:25:16 37° WSW 10:30:24 10° S
Cosmos 405 4.0 10:23:03 10° N 10:26:29 48° E 10:29:51 10° SSE
CZ-3B R/B 3.6 10:26:01 10° S 10:27:52 14° SSE 10:30:39 10° SE
Cosmos 1624 Rocket 4.1 10:24:33 16° SSW 10:28:50 65° WNW 10:34:09 10° NNE
Tianhe-1 1.0 10:26:19 12° WNW 10:29:11 88° NNE 10:32:18 10° ESE
BREEZE-M DEB (TANK) 4.4 10:14:29 10° WNW 10:29:57 79° NNE 10:33:52 10° ESE
Cosmos 407 Rocket 3.5 10:26:51 10° NNW 10:32:09 67° WSW 10:37:27 10° S
Cosmos 2082 3.7 10:27:20 10° NNW 10:33:03 86° WSW 10:38:45 10° SSE
Cosmos 1300 2.9 10:32:36 10° NNW 10:36:18 50° W 10:39:59 10° S
IDEFIX/ARIANE 42P 3.9 10:33:30 10° NNW 10:37:33 23° WNW 10:40:52 13° WSW
SL-16 R/B 3.9 10:33:32 10° SSE 10:38:25 31° ESE 10:43:18 10° NE
CZ-2C R/B 2.8 10:34:28 10° N 10:38:27 81° WNW 10:42:28 10° SSW
Meteor 2-5 Rocket 4.1 10:34:32 11° SSW 10:39:56 49° WNW 10:45:27 10° N
CZ-2C R/B 2.5 10:35:23 10° N 10:40:29 80° WNW 10:45:39 10° SSW
CZ-4B R/B 4.4 10:37:29 10° N 10:41:46 30° WNW 10:45:39 12° SW
Meteor 1-24 Rocket 3.9 10:38:44 10° SSW 10:44:20 56° WNW 10:49:45 10° N
USA 129 2.8 10:44:24 14° SSW 10:45:58 25° WSW 10:47:47 10° NW
Spot 4 Rocket 4.3 10:41:00 10° N 10:45:59 50° WNW 10:50:55 10° SW
Cosmos 1452 Rocket 4.1 10:42:09 10° S 10:47:18 59° ESE 10:52:30 10° NNE
Cosmos 2056 Rocket 4.0 10:44:47 12° SW 10:49:17 41° WNW 10:54:08 10° N
Lacrosse 4 Rocket 2.4 10:47:55 12° WSW 10:51:38 36° WNW 10:55:47 10° N
FENGYUN 3A 3.8 10:47:10 10° NNE 10:52:34 81° ESE 10:57:57 10° S
COSMOS 2455 4.0 10:49:39 10° WNW 10:53:56 21° WSW 10:58:14 10° SSW
Cosmos 1892 Rocket 3.6 10:51:08 10° S 10:55:28 84° E 10:59:50 10° N
PSLV R/B 3.5 10:51:32 10° NNE 10:55:44 89° WNW 10:59:56 10° SSW
Aureole 2 Rocket 4.5 10:53:54 10° N 10:56:14 25° ENE 10:58:33 10° SE
Cosmos 1455 3.6 10:52:39 10° N 10:56:19 44° E 11:00:00 10° SSE
Cosmos 1954 Rocket 4.1 10:52:10 10° NNW 10:57:27 88° WSW 11:02:45 10° SSE
IRAS Rocket 4.2 10:52:22 10° SSE 10:57:54 79° WSW 11:03:32 10° NNW
PAYLOAD A 4.2 10:54:31 10° N 10:59:04 45° WNW 11:03:30 10° SW
Cosmos 2219 4.4 10:55:41 10° NW 10:59:53 21° W 11:04:05 10° SSW
Cosmos 2058 Rocket 3.8 11:02:44 10° N 11:07:12 62° E 11:11:39 10° SSE
Cosmos 2322 Rocket 3.4 11:04:35 10° S 11:09:54 44° ESE 11:15:17 10° NE
Cosmos 1464 Rocket 4.0 11:05:10 10° NNW 11:11:14 63° W 11:17:20 10° S
